Home > Weather > Astrakhan > Past weeks

Flag for Russia Past Weather in Astrakhan, Russia — Yesterday and Last 2 Weeks

Now
79 °F

Clear.


Feels Like: 79 °F
Forecast: 66 / 89 °F
Wind: 6 mph from Northwest

Location: Astrakhan

Current Time: Aug 27, 2016 at 10:56:38 PM

Latest Report: Aug 27, 2016 at 10:00 PM


Visibility: 10 mi

Pressure: 29.98 "Hg

Humidity: 45%

Dew Point: 55 °F

Location of AstrakhanLocation

Past Weather in Astrakhan — Graph

°F

Astrakhan Temperature Yesterday

Maximum temperature yesterday: 90 °F (at 2:00 PM)
Minimum temperature yesterday: 63 °F (at 4:00 AM)
Average temperature yesterday: 76 °F

High & Low Weather Summary for the Past Weeks

 TemperatureHumidityPressure
High102 °F (Aug 13, 2:00 PM)94% (Aug 13, 3:30 AM)30.09 "Hg (Aug 13, 3:30 AM)
Low57 °F (Aug 16, 3:30 AM)11% (Aug 25, 3:30 PM)29.80 "Hg (Aug 14, 9:30 AM)
Average81 °F50%29.98 "Hg
* Reported Aug 12 9:00 PM — Aug 27 9:30 PM, Astrakhan, Weather by CustomWeather, © 2016

Note: Actual official high and low records may vary slightly from our data, if they occured in-between our weather recording intervals... More about our weather records

Advertising

Astrakhan Weather History for the Previous 24 Hours

Scroll right to see more
 ConditionsComfort  
Time TempWeatherWind HumidityBarometerVisibility
9:30 PM
Sat, Aug 27
81 °FClear.6 mph39%29.98 "Hg10 mi
9:00 PM81 °FClear.6 mph32%29.98 "Hg5 mi
8:30 PM73 °FClear.3 mph47%29.98 "Hg5 mi
8:00 PM79 °FClear.3 mph39%29.98 "Hg10 mi
7:30 PM82 °FSunny.No wind32%29.95 "Hg10 mi
7:00 PM88 °FSunny.3 mph24%29.95 "Hg10 mi
6:30 PM90 °FSunny.3 mph21%29.95 "Hg10 mi
6:00 PM90 °FPassing clouds.6 mph21%29.95 "HgN/A
5:30 PM91 °FSunny.8 mph18%29.95 "Hg10 mi
5:00 PM91 °FSunny.10 mph18%29.95 "Hg10 mi
4:30 PM93 °FSunny.8 mph19%29.95 "Hg10 mi
4:00 PM93 °FPassing clouds.10 mph24%29.95 "HgN/A
3:30 PM91 °FPassing clouds.6 mph28%29.95 "HgN/A
3:00 PM93 °FPassing clouds.6 mph28%29.95 "HgN/A
2:30 PM91 °FPassing clouds.6 mph32%29.98 "HgN/A
2:00 PM91 °FSunny.3 mph34%29.98 "Hg10 mi
1:30 PM91 °FPassing clouds.6 mph34%29.98 "HgN/A
1:00 PM91 °FSunny.3 mph30%29.98 "Hg10 mi
12:30 PM91 °FSunny.3 mph30%29.98 "Hg10 mi
12:00 PM88 °FSunny.6 mph38%29.98 "Hg10 mi
11:30 AM88 °FSunny.3 mph31%29.98 "Hg10 mi
11:00 AM86 °FSunny.3 mph43%29.98 "Hg10 mi
10:30 AM84 °FPassing clouds.3 mph55%29.98 "HgN/A
10:00 AM82 °FPassing clouds.3 mph62%29.98 "HgN/A
9:30 AM79 °FPassing clouds.3 mph70%29.98 "HgN/A
9:00 AM81 °FSunny.1 mph70%29.98 "Hg10 mi
8:30 AM75 °FSunny.1 mph83%29.98 "Hg10 mi
8:00 AM72 °FPassing clouds.1 mph88%29.98 "HgN/A
7:30 AM70 °FPassing clouds.3 mph88%29.98 "HgN/A
7:00 AM64 °FFog.1 mph88%29.98 "Hg2 mi
6:30 AM64 °FClear.No wind88%29.98 "Hg5 mi
6:00 AM63 °FClear.1 mph88%29.98 "Hg10 mi
5:30 AM63 °FClear.3 mph94%29.98 "Hg10 mi
5:00 AM64 °FClear.3 mph88%29.95 "Hg10 mi
4:30 AM64 °FClear.No wind88%29.95 "Hg10 mi
4:00 AM66 °FClear.No wind88%29.95 "Hg10 mi
3:30 AM66 °FClear.No wind94%29.95 "Hg10 mi
3:00 AM66 °FClear.No wind94%29.98 "Hg10 mi
2:30 AM66 °FClear.3 mph88%29.98 "Hg10 mi
2:00 AM66 °FClear.No wind88%29.95 "Hg10 mi
1:30 AM64 °FClear.No wind88%29.95 "Hg10 mi
1:00 AM66 °FClear.3 mph83%29.95 "Hg10 mi
12:30 AM66 °FClear.3 mph83%29.95 "Hg10 mi
12:00 AM68 °FClear.3 mph78%29.95 "Hg10 mi
11:30 PM
Fri, Aug 26
68 °FClear.3 mph83%29.95 "Hg10 mi
11:00 PM70 °FClear.3 mph78%29.95 "Hg10 mi
10:30 PM70 °FClear.3 mph73%29.95 "Hg10 mi
10:00 PM72 °FClear.6 mph69%29.95 "Hg10 mi
Weather by CustomWeather, © 2016

See weather overviewHow to use our weather pages